Theta_e
350 350 350 350 351 351 351 351 351 351 351 351 351 351 351 351 350 351 350 349 349 349 349 349 349 350 350 350 349 348 349 350 352 353 354 356 356 357 356 355 353 352
351 351 351 350 350 351 351 351 351 351 351 351 351 350 351 351 351 351 349 349 349 349 349 349 350 350 350 351 350 350 350 351 352 354 355 356 356 356 357 357 356 355
352 351 351 351 351 351 351 351 351 351 351 351 351 350 350 351 351 351 350 350 350 350 349 350 350 350 350 351 352 351 350 351 352 353 355 357 357 357 357 357 357 357
352 352 351 351 351 351 351 351 351 351 351 350 351 350 349 350 349 350 350 350 350 350 350 349 350 349 350 351 352 352 351 351 352 353 354 356 357 357 357 357 357 357
352 352 352 351 352 351 351 351 351 351 351 351 350 350 349 349 349 349 349 350 350 350 350 350 349 349 350 350 351 353 352 351 351 352 353 354 355 357 357 357 357 357
352 352 352 352 351 352 351 351 351 351 351 350 350 350 350 348 348 348 348 349 349 350 350 349 350 349 349 350 351 352 352 352 352 353 353 353 353 355 356 357 357 357
352 352 352 352 351 351 351 351 351 351 351 351 350 350 349 349 349 348 348 348 348 348 349 349 349 350 350 350 351 352 352 352 353 353 353 353 353 354 354 356 357 357
352 352 352 352 351 352 352 351 351 351 351 351 350 350 350 349 350 349 348 349 349 349 349 350 350 351 351 351 351 352 352 352 352 353 353 354 354 354 354 355 356 357
352 352 352 352 352 351 351 352 351 351 351 351 350 350 350 350 350 350 350 350 350 350 350 350 351 351 351 352 351 352 352 352 352 353 353 354 354 354 354 354 355 357
352 352 352 352 352 352 352 352 351 351 351 350 351 350 350 350 350 350 350 350 351 350 350 351 351 351 352 352 352 352 352 352 352 352 353 354 354 354 355 355 355 355
352 352 352 352 352 352 352 352 351 351 350 351 350 350 350 350 350 351 350 351 351 351 351 351 351 351 351 352 352 352 352 352 352 353 353 353 353 353 354 354 355 355
352 352 352 352 352 352 352 352 351 351 351 351 351 350 350 350 350 351 351 351 351 351 351 351 351 351 352 352 353 353 352 353 352 353 353 353 354 354 354 354 354 354
353 352 352 352 352 352 352 352 352 351 351 351 351 350 351 350 351 351 351 351 351 351 352 352 352 352 352 352 353 352 353 353 353 353 354 354 354 354 354 354 355 355
352 352 352 352 352 352 352 352 351 352 351 351 351 351 351 350 351 351 351 351 351 351 352 352 352 353 353 352 353 353 353 353 353 353 354 354 355 355 355 355 354 355
352 352 352 352 352 352 352 352 352 351 352 351 351 351 351 351 351 351 351 352 351 352 352 352 352 353 352 352 352 353 353 353 354 354 354 354 355 355 355 355 355 355
352 352 352 352 352 352 352 352 352 352 351 351 351 351 351 351 351 351 352 352 352 352 352 353 353 353 352 352 352 352 353 353 353 354 354 354 355 355 356 356 355 355
352 352 352 352 352 352 352 352 352 351 352 351 351 351 351 351 351 351 351 352 352 352 352 353 353 352 352 352 352 353 353 354 354 354 354 354 355 355 355 355 355 355
353 352 353 352 352 352 352 352 352 352 352 352 351 352 351 351 351 351 351 351 352 352 352 353 353 352 352 352 353 353 353 354 354 354 354 354 354 354 355 355 354 355
353 353 353 353 353 353 352 353 352 352 352 352 352 352 352 351 351 351 351 351 351 352 352 352 352 352 352 353 353 353 354 354 354 354 354 354 354 354 354 354 355 355
354 354 354 354 354 354 354 353 353 353 353 352 352 352 352 352 352 352 352 352 352 351 351 351 352 352 352 352 352 353 354 354 354 354 354 354 354 354 354 354 355 355
355 355 355 355 355 355 354 354 354 354 354 353 353 353 353 353 353 352 352 352 352 351 351 352 351 351 351 352 352 352 353 353 354 354 354 354 354 355 355 355 356 356
356 356 356 356 356 355 355 356 355 355 354 354 354 353 353 353 353 352 353 352 352 352 351 351 352 351 351 351 351 352 352 353 353 354 354 354 354 354 354 355 355 355
357 357 356 356 357 357 356 356 356 356 356 355 355 354 354 354 354 353 353 353 352 352 352 352 352 352 351 351 351 351 352 352 353 353 354 354 353 353 354 354 354 355
358 358 358 358 358 357 357 357 356 357 356 356 356 355 355 355 354 354 354 353 353 353 353 353 352 352 352 351 351 352 352 352 352 353 353 353 353 353 353 354 354 354
359 358 358 358 359 358 358 358 358 357 358 356 356 356 356 355 355 354 354 354 354 354 353 353 353 353 352 352 352 352 352 352 352 352 352 352 352 353 353 353 354 354
359 359 359 358 359 359 359 358 358 358 358 357 357 357 356 356 356 355 355 354 354 354 353 353 353 353 353 353 352 352 352 352 352 352 352 352 352 352 353 353 353 354
Wind_Speed
37 36 36 35 34 34 33 33 33 33 33 34 33 33 33 32 30 29 28 27 26 26 26 25 22 21 20 20 21 21 21 21 19 18 17 17 17 16 17 17 18 19
38 36 36 35 34 34 34 34 33 33 34 34 34 34 33 32 30 29 28 27 26 27 27 26 24 22 22 21 21 21 21 21 20 19 18 18 18 18 18 18 18 19
38 37 36 36 36 36 35 34 33 33 34 33 34 33 33 32 31 30 29 27 26 27 27 27 25 24 23 22 21 21 22 22 21 20 19 19 19 19 19 19 19 19
39 38 38 37 37 37 35 34 33 33 33 33 33 33 32 32 31 30 29 28 27 27 27 27 26 25 24 24 23 22 22 22 22 20 20 21 20 20 20 19 20 20
39 39 39 38 37 36 34 34 34 34 34 34 33 32 32 31 31 30 30 29 29 28 28 28 28 27 26 25 25 24 24 23 23 22 22 22 22 22 21 20 21 21
38 38 39 38 37 35 35 35 36 35 35 34 33 32 32 31 31 31 30 30 30 29 29 29 29 29 28 27 27 26 25 24 24 23 24 24 23 23 22 22 22 23
37 38 38 38 36 36 36 36 36 35 34 33 33 32 32 31 31 31 31 30 30 30 30 30 30 29 29 29 28 27 27 26 25 25 25 26 25 24 25 24 25 25
37 37 37 37 36 36 36 36 35 34 34 32 32 33 32 32 32 32 32 31 31 30 30 30 30 30 29 29 29 29 28 27 27 27 27 27 27 27 27 26 27 27
36 36 37 37 37 37 37 36 35 34 33 32 32 33 32 33 33 33 33 32 32 31 31 31 31 30 30 30 30 30 30 29 29 28 29 29 29 29 29 28 28 29
36 36 37 37 37 38 37 37 35 34 33 33 33 33 33 33 33 33 33 33 33 33 32 32 32 32 31 31 31 31 31 30 30 29 30 30 30 30 30 29 29 30
37 36 36 37 38 38 37 37 35 34 34 33 33 33 33 33 33 33 33 33 34 34 34 34 33 33 32 32 32 32 31 31 31 31 31 31 31 31 30 30 30 31
37 37 37 37 38 37 37 36 36 35 34 34 34 34 33 33 33 33 33 34 35 35 35 35 34 34 33 33 33 32 32 32 32 32 32 32 32 32 31 31 31 32
38 38 38 38 38 38 37 36 36 36 35 35 35 34 34 34 34 34 34 35 36 36 35 35 34 34 34 33 33 33 33 34 33 33 33 33 33 33 32 32 33 33
39 39 39 39 39 38 38 37 37 36 36 36 35 35 35 36 35 35 35 35 36 36 35 34 34 34 34 34 34 35 35 35 34 34 33 33 32 33 33 33 34 34
39 38 38 38 38 37 37 37 37 37 36 36 35 35 36 35 35 35 34 34 35 35 34 34 34 35 36 36 36 36 35 35 35 34 33 33 32 31 32 33 34 35
37 37 37 36 36 36 37 37 37 37 36 36 35 36 35 35 34 34 34 35 35 35 34 33 34 36 37 38 37 37 35 34 34 34 33 32 31 31 31 33 34 35
36 36 36 36 37 37 37 37 37 36 36 36 36 36 35 35 34 34 35 36 35 35 35 34 35 37 38 38 38 37 36 34 33 33 32 32 31 31 33 34 33 34
36 36 36 36 37 37 37 37 36 36 35 36 36 36 36 36 36 36 37 37 36 36 35 35 37 38 39 38 38 38 37 36 35 33 32 32 32 33 34 34 34 34
36 35 36 36 37 38 38 37 36 36 36 36 36 37 37 37 37 37 38 37 37 37 37 37 38 39 39 39 39 38 37 36 35 35 34 33 33 33 34 34 34 34
35 36 36 37 38 38 37 37 37 37 37 37 37 36 36 37 38 38 38 38 38 38 38 38 39 39 39 39 39 38 36 35 36 36 35 35 34 34 35 35 35 34
36 36 37 37 37 37 37 37 37 37 38 37 36 36 37 38 38 37 38 38 39 39 38 39 41 41 40 40 39 37 36 35 35 36 36 36 36 36 36 36 36 35
36 36 36 37 37 36 35 36 36 37 38 37 36 36 37 37 37 37 38 39 39 38 38 40 42 41 40 40 40 37 35 34 35 36 36 36 37 37 37 37 37 36
37 37 37 37 36 35 35 36 37 38 38 37 36 36 36 37 37 37 38 38 38 38 39 40 41 40 39 40 39 36 35 35 36 36 36 37 38 38 37 37 37 37
38 38 38 36 35 35 36 38 38 38 38 38 37 37 38 39 38 37 37 37 38 39 39 40 40 39 38 38 37 36 35 36 36 37 36 37 37 38 37 37 37 37
39 39 38 36 36 37 38 38 38 38 37 36 36 37 38 37 36 35 35 36 38 39 39 39 40 38 37 37 37 36 36 36 36 36 35 36 37 37 36 36 36 36
37 38 38 37 37 38 39 38 38 37 35 34 35 36 36 35 34 34 34 35 36 37 37 39 39 38 37 37 36 36 36 36 36 36 35 35 35 35 35 33 33 34
Wind_Direction
210 209 210 212 214 216 218 219 220 220 221 222 224 226 228 230 231 232 234 236 237 239 239 242 245 247 248 247 246 246 246 247 249 250 251 252 254 255 256 258 259 259
209 210 211 212 214 216 218 220 222 222 224 225 227 228 229 231 232 233 234 235 237 238 239 242 245 247 248 248 247 245 244 246 248 249 249 251 252 254 255 256 259 261
209 210 210 212 214 216 219 220 222 224 226 227 229 230 231 232 233 234 235 235 236 238 239 242 245 248 249 249 248 247 245 246 248 249 250 251 252 253 255 256 259 261
209 210 211 213 216 217 218 219 222 225 226 228 230 231 232 233 234 235 235 235 235 236 239 242 245 248 249 250 249 248 247 247 248 250 252 253 253 254 255 257 259 261
209 210 212 214 216 217 218 219 222 224 226 229 231 232 233 234 234 235 235 235 235 236 238 241 245 248 249 250 250 249 249 248 249 250 252 253 253 255 256 258 260 260
209 210 212 213 215 215 217 220 223 224 226 228 230 232 234 234 234 235 236 236 236 236 238 240 243 246 248 249 250 250 250 249 250 251 253 255 255 255 257 258 260 261
209 210 211 213 213 215 217 220 223 224 225 227 229 231 233 233 233 235 237 238 237 237 239 240 242 245 247 248 249 250 251 250 251 252 253 256 257 257 257 257 259 261
209 210 210 212 213 214 217 220 222 223 224 225 227 230 232 233 234 235 237 238 239 239 240 241 243 245 246 247 247 248 250 250 250 251 252 254 255 257 257 257 258 260
208 209 209 210 212 214 217 219 221 222 223 224 227 230 231 233 235 236 236 238 239 240 241 242 244 246 246 246 247 247 248 250 250 250 251 251 252 255 257 257 257 259
207 208 209 210 212 214 216 218 220 221 222 224 227 229 231 233 235 236 237 237 238 239 241 242 244 245 246 246 246 247 248 249 250 251 251 252 253 254 255 256 256 257
207 208 209 210 212 214 216 218 218 220 221 223 225 227 230 232 233 235 235 236 237 238 240 242 244 245 245 245 246 247 248 250 251 251 252 253 254 255 255 255 256 257
206 207 209 211 212 214 216 217 218 219 221 222 224 226 228 230 231 233 234 235 237 239 239 241 243 244 244 245 246 247 249 250 251 251 252 252 254 255 256 256 257 259
205 208 209 211 213 214 215 217 218 219 220 222 224 225 227 229 230 232 233 236 238 239 239 240 241 242 244 244 246 247 248 249 250 250 250 251 252 254 255 257 258 259
206 208 210 211 213 214 215 216 217 219 220 222 223 224 226 228 229 231 233 235 238 239 239 239 239 241 242 242 244 245 246 247 248 248 248 249 250 252 254 256 258 260
207 208 210 211 212 213 214 215 217 218 219 221 222 224 226 228 229 231 233 235 237 238 239 238 238 239 241 241 242 242 243 244 246 247 248 248 249 250 253 255 257 258
206 207 209 210 211 213 214 215 217 218 218 220 222 224 226 228 229 231 232 234 237 238 238 237 237 239 241 243 243 242 242 242 244 246 247 248 248 249 252 254 255 257
205 206 207 209 211 213 214 216 217 217 218 220 221 223 225 227 229 230 232 234 235 237 237 237 238 240 242 243 244 244 243 242 243 245 246 247 248 249 252 254 255 257
204 205 206 208 210 212 214 216 217 217 218 220 221 223 224 225 227 229 231 233 234 236 237 237 239 242 243 243 244 244 243 242 243 244 245 246 248 249 252 254 256 257
203 204 206 208 210 212 214 215 216 217 218 219 221 223 224 225 226 228 231 232 233 235 236 237 240 242 243 244 244 244 243 242 242 243 244 246 247 249 251 253 255 256
202 203 206 209 211 212 213 214 215 216 218 220 222 223 223 225 227 228 230 231 233 235 237 238 240 242 243 244 244 244 243 242 243 243 244 245 247 249 250 252 253 254
202 204 207 209 211 211 212 213 215 217 218 220 221 222 224 225 227 228 229 231 233 234 236 239 241 242 243 244 245 245 244 243 243 243 243 245 247 249 250 251 253 253
202 204 207 209 210 211 211 213 215 217 219 219 220 222 224 226 227 228 229 231 232 233 235 239 242 243 243 244 245 244 244 243 243 243 243 244 247 249 250 251 253 253
203 205 207 209 209 209 211 214 216 218 219 219 219 221 223 225 227 228 230 231 232 233 234 237 241 242 243 244 244 243 242 242 241 242 242 244 247 250 251 252 253 252
204 206 208 208 208 209 212 214 216 218 219 219 218 220 223 225 226 228 230 231 232 233 234 236 240 242 242 243 243 242 240 240 240 240 241 243 247 250 251 252 253 253
206 208 209 208 209 211 214 215 217 218 219 219 218 220 223 226 226 227 229 230 232 234 235 237 240 242 243 243 242 241 240 239 238 238 238 241 246 249 251 252 252 253
207 208 210 210 211 213 215 217 218 219 219 218 219 221 224 226 226 227 229 231 232 233 235 237 239 240 241 242 242 241 240 238 236 235 236 240 244 247 249 251 252 253